User: anonymous   Login
Location: Karcze
(52.0945°N, 22.4786°E)
Time: 10:10:37
(UTC+00:00)
Language:

Cosmos 405 Rocket - Orbit

View from above orbital plane
View from above orbital plane
View from above satellite
View from above satellite

Ground track
Ground track

The orbit data is extracted from the following two-line orbital elements,

1  5118U 71028B   20269.88665319 +.00000929 +00000-0 +47603-4 0  9992
2  5118 081.2560 220.9635 0045784 225.6940 134.0531 15.14664347685021
Epoch (UTC): 25 September 2020 21:16:46
Eccentricity: 0.0045784
inclination: 81.2560°
perigee height: 490 km
apogee height: 553 km
right ascension of ascending node: 220.9635°
argument of perigee: 225.6940°
revolutions per day: 15.14664347
mean anomaly at epoch: 134.0531°
orbit number at epoch: 68502

The dashed part of the orbit path shows where the satellite is in the earth's shadow,  

DLR